Погода в Поротникове

Россия / Томская область     57°00′18″N   82°20′50″E
темп.,
°C
ветер,
м/с
пор.,
м/с
влажн.,
%
обл.,
%
осадки,
мм/ч
давл.,
гПа
погр.,
м
13 апреля, вт
вт1301:00+2зсз2797100 0.4 1026236
04:00+1сз399646 0.0 1027331
07:000сз4891100 0.0 1029573
10:00+3зсз37805 0.0 1030616
13:00+6зсз47645 0.0 10301346
16:00+6зсз5969100 0.1 10291555
19:00+4зсз41076100 0.5 1029665
22:000з29925 0.2 1030194
14 апреля, ср
ср1401:00+1з4119293 0.3 1030345
04:000зюз3109499 0.0 1029307
07:00+2зюз4993100 0.0 1027469
10:00+2юз41297100 1.3 1025691
13:00+6зюз51378100 1.6 1022934
16:00+6з51177100 0.1 10211077
19:00+5зсз4988100 0.1 1022909
22:00+4зсз3992100 0.1 1023452
15 апреля, чт
чт1501:00+3зсз3896100 0.1 1024439
04:00+3з2599100 0.0 1025193
07:00+3зюз2397100 0.0 1025101
10:00+4юз2592100 0.0 1025284
13:00+6юз3785100 0.0 1023508
16:00+6ююз498781 0.0 1021535
19:00+8юз4989100 0.0 1019527
22:00+6юз4139526 0.0 1018363
16 апреля, пт
пт1601:00+6юз4149413 0.0 1016377
04:00+6юз4129565 0.0 1014292
07:00+5юз412937 0.0 1013308
10:00+10зюз487727 0.0 1012436
13:00+14зюз586695 0.0 10101032
16:00+4ссв5991100 0.1 1013409
19:00+2ссв41088100 0.3 1015585
22:00+1ссв4891100 0.3 1016626
17 апреля, сб
сб1701:000св5992100 0.7 1017645
04:00−2св5985100 0.3 1016726
07:00−3св51087100 0.6 1016723
10:00−4всв61185100 1.4 1016723
13:00−3всв6980100 2.7 1015928
16:00−2всв5987100 0.6 1013985
19:00−3св51192100 2.1 1012905
22:00−4св61392100 1.4 1013873